Regional Weather Roundup
Issued by NWS Cleveland, OH

Home | Current Version | Previous Version | Graphics & Text | Print | Product List | Glossary On
Versions: 1 2 3 4 5 6 7 8 9 10 11 12 13 14 15 16 17 18 19 20 21 22 23 24 25 26 27 28 29 30 31 32 33 34 35 36 37 38 39 40 41 42 43 44 45 46 47 48 49 50
000
ASUS41 KCLE 061500
RWRCLE
OHIO REGIONAL WEATHER ROUNDUP
NATIONAL WEATHER SERVICE WILMINGTON, OH
1100 AM EDT MON JUL 06 2015

NOTE: "FAIR" INDICATES FEW OR NO CLOUDS BELOW 12,000 FEET WITH NO
SIGNIFICANT WEATHER AND/OR OBSTRUCTIONS TO VISIBILITY.

OHZ001>008-015>018-024>027-034-035-043-044-061600-
   NORTHWEST OHIO

CITY           SKY/WX    TMP DP  RH WIND       PRES   REMARKS
DEFIANCE       SUNNY     77  63  61 VRB5      30.07F
FINDLAY        SUNNY     77  63  61 W5        30.07S
TOLEDO EXPRESS SUNNY     77  62  59 SW5       30.08R
TOLEDO EXEC    SUNNY     77  61  57 SW8       30.09R
LIMA           SUNNY     75  64  68 SW6       30.09S
$$

OHZ009>014-019>023-028>033-038-089-061600-
   NORTHEAST OHIO

CITY           SKY/WX    TMP DP  RH WIND       PRES   REMARKS
CLE-HOPKINS    MOSUNNY   80  60  50 CALM      30.09F
CLE-LAKEFRONT  MOSUNNY   77  66  68 NW7       30.06F
CUY CO. ARPT   MOSUNNY   82  63  51 CALM      30.08F
LORAIN-ELYRIA  SUNNY     77  62  59 CALM      30.08F
ASHTABULA      MOSUNNY   76  67  73 CALM      30.09F
AKRON-CANTON   PTSUNNY   79  65  62 CALM      30.08F
WOOSTER        NOT AVBL
MANSFIELD      MOSUNNY   77  62  59 CALM      30.10F
YOUNGSTOWN     PTSUNNY   77  67  71 SW5       30.09F
$$

OHZ042-051>053-060>062-070>072-077>081-061600-
  SOUTHWEST OHIO

CITY           SKY/WX    TMP DP  RH WIND       PRES   REMARKS
CINC-COVINGTON SUNNY     76  62  62 SW6       30.12S
CINC-LUNKEN    SUNNY     76  64  66 W5        30.11S
HAMILTON       SUNNY     78  66  66 VRB5      30.11F
DAYTON         NOT AVBL
WRIGHT-PAT AFB SUNNY     75  64  69 VRB2      30.09F
DAYTON GENERAL SUNNY     76  62  62 W7        30.10S
WILMINGTON     SUNNY     76  61  59 VRB3      30.10F
$$

OHZ036-037-039>041-045>050-054>059-063>069-073>076-082>088-061600-
  CENTRAL AND SOUTHEAST OHIO

CITY           SKY/WX    TMP DP  RH WIND       PRES   REMARKS
COLUMBUS       MOSUNNY   77  64  64 CALM      30.07F
OSU AIRPORT    SUNNY     78  62  57 N5        30.08F
BOLTON FIELD   SUNNY     79  64  61 CALM      30.09F
RICKENBACK AFB NOT AVBL
NEWARK         CLOUDY    73  65  75 SE3       30.08F
MARION         SUNNY     78  60  53 CALM      30.08F
LANCASTER      MOSUNNY   74  65  73 CALM      30.10S
ZANESVILLE     PTSUNNY   74  66  76 W6        30.09S
NEW PHILLY     PTSUNNY   73  69  87 CALM      30.09F FOG
$$



USA.gov is the U.S. government's official web portal to all federal, state and local government web resources and services.